Погода в Самаре

Россия / Самарская область     53°11′43″N   50°06′06″E
темп.,
°C
ветер,
м/с
пор.,
м/с
влажн.,
%
обл.,
%
осадки,
мм/ч
давл.,
гПа
погр.,
м
22 мая, вс
вс2201:00+4з2379100 0.0 100698
04:00+3з238450 0.0 100689
07:00+6зюз24696 0.0 1004250
10:00+10зсз355837 0.1 10021214
13:00+12з345660 1.0 10011458
16:00+12ссз226485 2.5 1000975
19:00+10св357796 1.3 998263
22:00+9всв2587100 2.1 999238
23 мая, пн
пн2301:00+7св1394100 2.2 997194
04:00+6ссв2492100 2.9 997245
07:00+6с2593100 1.1 998320
10:00+6с3488100 2.1 999397
13:00+8ююз027556 0.0 1000592
16:00+10з3461100 0.1 1001952
19:00+10зсз246197 0.0 1002873
22:00+7зсз117214 0.0 100396
24 мая, вт
вт2401:00+4зсз128054 0.0 100464
04:00+3зсз23815 0.0 100571
07:00+6зюз24670 0.0 1006320
10:00+10юз34485 0.0 10061054
13:00+14зюз46434 0.0 10061968
16:00+15юз464097 0.0 10062249
19:00+13зюз255884 0.1 1007627
22:00+8всв127340 0.1 100742
25 мая, ср
ср2501:00+8вюв247572 0.0 1007124
04:00+6сз118229 0.0 100723
07:00+7сз357710 0.0 1009470
10:00+7сз3573100 0.0 1010874
13:00+10сз345678 0.0 10111407
16:00+10сз345284 0.1 10111412
19:00+10зсз34565 0.1 10121108
22:00+6зсз25735 0.1 1013125
26 мая, чт
чт2601:00+5зсз24855 0.0 1013112
04:00+4зсз25880 0.0 1014122
07:00+7з3670100 0.0 1014326
10:00+10зюз4556100 0.0 10141298
13:00+12зюз5743100 0.1 10132208
16:00+12юз474797 0.1 10131745
19:00+12ююз3856100 0.0 10111099
22:00+11ю41164100 0.0 1009651